Regional Weather Roundup
Issued by NWS

Home | Current Version | Previous Version | Graphics & Text | Print | Product List | Glossary On
Versions: 1 2 3 4 5 6 7 8 9 10 11 12 13 14 15 16 17 18 19 20 21 22 23 24 25 26 27 28 29 30 31 32 33 34 35 36 37 38 39 40 41 42 43 44 45 46 47 48 49 50
030
ASUS43 KIND 231359
RWRIN

WEATHER ROUNDUP FOR INDIANA
NATIONAL WEATHER SERVICE INDIANAPOLIS IN
900 AM EST THU NOV 23 2017

NOTE: "FAIR" INDICATES FEW OR NO CLOUDS BELOW 12,000 FEET WITH NO
SIGNIFICANT WEATHER AND/OR OBSTRUCTIONS TO VISIBILITY.

* - STATION DOES NOT REPORT WEATHER SUCH AS PRECIPITATION OR FOG.

+ - STATION NOT QUALITY CONTROLLED BY THE NATIONAL WEATHER SERVICE.
    USE DATA WITH CAUTION...ESPECIALLY DEWPOINT AND RELATIVE
    HUMIDITY OBSERVATIONS.

INZ001>003-010>013-019-020-231500-
NORTHWEST INDIANA

CITY           SKY/WX    TMP DP  RH WIND       PRES   REMARKS
GARY /AIRPORT/ PTSUNNY   36  21  55 SW12      30.07S WCI  27
KNOX *+        CLOUDY    32  23  69 SW7       30.08F WCI  26
LA PORTE +     CLOUDY    32  23  70 S6        30.08S WCI  26
MICHIGAN CITY+ CLOUDY    32  23  69 S6        30.08R WCI  26
MONTICELLO +   CLOUDY    32  23  68 SW7       30.10S WCI  26
RENSSELAER +   CLOUDY    32  21  64 S12       30.09S WCI  23

$$

LMZ046-743>745-231500-
SOUTHERN LAKE MICHIGAN

STATION/POSITION TIME  TEMP    WIND        PRES    WAVE
                       AIR SEA DIR/SP/G            HT
                 (UTC) (F)     (DEG/KT/KT) (MB)    (FT)
BURNS HARBOR     1340   33     190/  8/ 13 1018.6S
MICHIGAN CITY    1330   33     170/  9/ 10   N/A

$$

INZ004-005-014>016-021>024-231500-
NORTH CENTRAL INDIANA

CITY           SKY/WX    TMP DP  RH WIND       PRES   REMARKS
GOSHEN         CLOUDY    31  22  69 S8        30.09S WCI  23
PERU/GRISSOM   CLOUDY    32  27  84 SW6       30.10R WCI  26
SOUTH BEND     CLOUDY    31  22  69 S9        30.08F WCI  23
WARSAW +       CLOUDY    32  25  74 SW3       30.09F

$$

INZ006>009-017-018-025>027-231500-
NORTHEAST INDIANA

CITY           SKY/WX    TMP DP  RH WIND       PRES   REMARKS
AUBURN +       CLOUDY    32  27  80 S3        30.11F
FORT WAYNE     CLOUDY    32  27  81 SW7       30.12S WCI  26
KENDALLVILLE + CLOUDY    30  26  84 S6        30.09F WCI  24

$$

INZ028-029-035-036-043>045-051>053-231500-
WEST CENTRAL INDIANA

CITY           SKY/WX    TMP DP  RH WIND       PRES   REMARKS
CRAWFORDSVL +  CLOUDY    30  25  83 MISG      30.11F
GREENCASTLE +  CLOUDY    30  25  80 S5        30.12F WCI  25
LAFAYETTE      CLOUDY    32  24  72 SW7       30.11F WCI  26
TERRE HAUTE    CLOUDY    31  25  78 S6        30.14F WCI  25

$$

INZ030>032-037>040-046>048-054>057-064-065-231500-
CENTRAL INDIANA

CITY           SKY/WX    TMP DP  RH WIND       PRES   REMARKS
COLUMBUS       PTSUNNY   30  25  80 CALM      30.17R
FRANKFORT +    CLOUDY    34  28  79 SW6       30.12S WCI  29
GREENWOOD *+   CLOUDY    35  27  73 S6        30.13F WCI  30
INDIANAPOLIS   CLOUDY    32  25  75 SW8       30.13S WCI  25
-EAGLE CREEK   CLOUDY    32  24  72 S5        30.12S WCI  27
KOKOMO +       CLOUDY    32  27  81 S6        30.12S WCI  26
MT COMFORT *+  CLOUDY    30  28  93 S6        30.12F WCI  24
SHELBYVILLE    CLOUDY    32  25  75 S7        30.14S WCI  26

$$

INZ033-034-041-042-049-050-058-059-231500-
EAST CENTRAL INDIANA

CITY           SKY/WX    TMP DP  RH WIND       PRES   REMARKS
MUNCIE         CLOUDY    33  24  69 SW8       30.12S WCI  26
RICHMOND +     CLOUDY    30  28  93 S8        30.13S WCI  23

$$

INZ060-061-067>069-081>083-085>088-231500-
SOUTHWEST INDIANA

CITY           SKY/WX    TMP DP  RH WIND       PRES   REMARKS
EVANSVILLE     SUNNY     28  26  92 CALM      30.19R
HUNTINGBURG +  SUNNY     26  24  92 S3        30.18S

$$

INZ062-063-066-070>080-084-089>092-231500-
SOUTH CENTRAL AND SOUTHEAST INDIANA

CITY           SKY/WX    TMP DP  RH WIND       PRES   REMARKS
BLOOMINGTON    CLOUDY    31  25  78 S5        30.13F WCI  26
MADISON *+     CLOUDY    32  28  86 CALM      30.18S
SEYMOUR +      CLOUDY    30  27  86 CALM      30.17S

$$





USA.gov is the U.S. government's official web portal to all federal, state and local government web resources and services.